Retour au catalogue

NINGXIA-1 5

ActifScienceLEO
NORAD 44783·PAYLOAD·🇨🇳 China

Lancé Nov 13, 2019 depuis Taiyuan Satellite Launch Center

Loading…

Prochains Passages (prochaines 24 heures)

TLE

FraisSource: Space-Track

Époque: Sep 14, 2026, 14:52 UTC

1 44783U 19076E   26257.62013851  .00000042  00000-0  11130-3 0  9992
2 44783  45.0051 139.4993 0010767 213.7970 146.2179 14.02095497350325

Suivez NINGXIA-1 5 en temps réel avec AllMySat

Download on the App Store